Location: Bucksport
(44.6167°N, 68.8000°W)
Time: 20:05:12
(UTC-05:00)

N. Korean satellite - Pass Details

Date: 26 October 2019
Orbit: 456 x 506 km, 97.2° (Epoch: 14 November)

Event Time Altitude Azimuth Distance (km) Brightness Sun altitude
Rises 18:15:44 0° 191° (S) 2,467 10.4 -8.2°
Reaches altitude 10° 18:17:57 10° 204° (SSW) 1,603 9.7 -8.6°
Maximum altitude 18:20:56 27° 264° (W) 918 9.0 -9.1°
Drops below altitude 10° 18:23:59 10° 325° (NW) 1,634 9.6 -9.7°
Sets 18:26:16 0° 337° (NNW) 2,525 10.4 -10.1°
